Sandberg, CA

11:44 PM PST on December 17, 2017 (GMT -0800)
Sandberg

Weather History for KSDB - February, 2014

Change the Weather History Date:

Tuesday, February 18, 2014

  Actual Average Record
Temperature  
Mean Temperature 57 °F 44 °F  
Max Temperature 72 °F 50 °F 72 °F (2014)
Min Temperature 42 °F 38 °F 21 °F (1952)
Degree Days  
Heating Degree Days 8 21  
Month to date heating degree days 260 390  
Since 1 July heating degree days 1669 2555  
Cooling Degree Days 0 0  
Month to date cooling degree days 7 0  
Year to date cooling degree days 7 0  
Growing Degree Days 8 (Base 50)    
Moisture  
Dew Point 25 °F    
Average Humidity 47    
Maximum Humidity 82    
Minimum Humidity 12    
Precipitation  
Precipitation 0.00 in 0.14 in 2.13 in (2005)
Month to date precipitation 0.11 1.87  
Year to date precipitation 0.11 4.28  
Since 1 July precipitation 0.89  
Sea Level Pressure  
Sea Level Pressure 30.02 in    
Wind  
Wind Speed 15 mph (North)    
Max Wind Speed 37 mph    
Max Gust Speed 42 mph    
Visibility 10 miles    
Events      
T = Trace of Precipitation, MM = Missing Value Source: NWS Daily Summary

Daily Weather History Graph

Daily Weather History Graph

Search for Another Location

Airport or City:

Trip Planner

Search our weather history database for the weather conditions in past years. The results will help you decide how hot, cold, wet, or windy it might be!

Date:

Astronomy

Feb. 18, 2014 Rise Set
Actual Time 6:37 AM PST 5:40 PM PST
Civil Twilight 6:11 AM PST 6:06 PM PST
Nautical Twilight 5:42 AM PST 6:36 PM PST
Astronomical Twilight 5:12 AM PST 7:05 PM PST
Moon 9:27 PM PST 8:22 AM PST
Length of Visible Light 11h 55m
Length of Day
11h 03m
Waning Gibbous, 86% of the Moon is Illuminated
Feb 18
Waning Gibbous
Feb 22
Last Quarter
Mar 1
New
Mar 8
First Quarter
Mar 16
Full

Hourly Weather History & Observations

Time (PST) Temp. Windchill Dew Point Humidity Pressure Visibility Wind Dir Wind Speed Gust Speed Precip Events Conditions
12:23 AM 44.1 °F 35.0 °F 37.9 °F 79% 30.11 in 8.0 mi NNW 24.2 mph 36.8 mph N/A   Partly Cloudy
12:48 AM 44.1 °F 34.4 °F 37.9 °F 79% 30.01 in 9.0 mi NNW 27.6 mph 33.4 mph N/A   Partly Cloudy
1:48 AM 43.0 °F 34.0 °F 37.9 °F 82% 29.99 in 6.0 mi North 21.9 mph 31.1 mph N/A   Haze
2:48 AM 43.0 °F 33.3 °F 37.0 °F 80% 29.99 in 7.0 mi NNW 25.3 mph - N/A   Clear
3:48 AM 44.1 °F 34.8 °F 35.1 °F 71% 29.99 in 10.0 mi NNW 25.3 mph 33.4 mph N/A   Clear
4:48 AM 44.1 °F 35.0 °F 32.0 °F 63% 30.01 in 10.0 mi NNW 24.2 mph - N/A   Clear
5:48 AM 45.0 °F 37.4 °F 28.9 °F 53% 30.02 in 10.0 mi NNW 18.4 mph - N/A   Clear
6:48 AM 46.0 °F 38.0 °F 30.9 °F 56% 30.04 in 10.0 mi NNW 21.9 mph - N/A   Clear
7:48 AM 50.0 °F - 30.0 °F 46% 30.05 in 10.0 mi NNW 15.0 mph - N/A   Clear
8:48 AM 55.9 °F - 25.0 °F 30% 30.06 in 10.0 mi North 12.7 mph - N/A   Clear
9:48 AM 61.0 °F - 23.0 °F 23% 30.06 in 10.0 mi North 5.8 mph - N/A   Clear
10:48 AM 61.0 °F - 27.0 °F 27% 30.07 in 10.0 mi North 8.1 mph - N/A   Clear
11:48 AM 66.0 °F - 23.0 °F 20% 30.04 in 10.0 mi NE 10.4 mph 19.6 mph N/A   Clear
12:48 PM 69.1 °F - 19.0 °F 15% 30.02 in 10.0 mi NE 9.2 mph - N/A   Clear
1:48 PM 63.0 °F - 25.0 °F 24% 30.02 in 10.0 mi North 13.8 mph - N/A   Clear
2:48 PM 61.0 °F - 21.0 °F 21% 29.99 in 10.0 mi NNE 5.8 mph - N/A   Clear
3:48 PM 62.1 °F - 21.9 °F 21% 30.01 in 10.0 mi North 10.4 mph - N/A   Clear
4:48 PM 60.1 °F - 15.1 °F 17% 29.99 in 10.0 mi NNE 4.6 mph - N/A   Clear
5:48 PM 59.0 °F - 7.0 °F 13% 30.00 in 10.0 mi NNW 12.7 mph - N/A   Clear
6:48 PM 54.0 °F - 19.0 °F 25% 30.01 in 10.0 mi NNW 15.0 mph - N/A   Clear
7:48 PM 55.9 °F - 10.9 °F 17% 30.00 in 10.0 mi North 12.7 mph - N/A   Clear
8:48 PM 50.0 °F - 23.0 °F 35% 30.00 in 10.0 mi North 12.7 mph - N/A   Clear
9:48 PM 55.9 °F - 17.1 °F 22% 29.98 in 10.0 mi NNW 12.7 mph - N/A   Clear
10:48 PM 54.0 °F - 19.0 °F 25% 29.98 in 10.0 mi NNW 18.4 mph 25.3 mph N/A   Clear
11:48 PM 53.1 °F - 18.0 °F 25% 29.96 in 10.0 mi NNW 19.6 mph 26.5 mph N/A   Clear